,,,PA_Meas_PMT16A,,PR_Meas_QMR101_102,,RH_Meas_QMH101,,SR_Meas_QMS101,,TA_Meas_QMH101,,GenWind,,GenWind,
date,time,status,PA,status,PR,status,RH,status,SR,status,TA,status,DirAvg,status,SpdAvg,
2011-05-16, 00:00:04,VALID,1012.314,VALID,0.0,VALID,104.0,VALID,0.0,VALID,24.24,VALID,72.0,VALID,0.218,
2011-05-16, 00:01:04,VALID,1012.303,VALID,0.0,VALID,104.0,VALID,0.0,VALID,24.259,VALID,72.0,VALID,0.341,
2011-05-16, 00:02:04,VALID,1012.282,VALID,0.0,VALID,104.0,VALID,0.0,VALID,24.24,VALID,72.0,VALID,0.2,
2011-05-16, 00:03:04,VALID,1012.245,VALID,0.0,VALID,104.0,VALID,0.0,VALID,24.24,VALID,72.0,VALID,0.345,
2011-05-16, 00:04:04,VALID,1012.258,VALID,0.0,VALID,104.0,VALID,0.0,VALID,24.24,VALID,72.0,VALID,0.342,
2011-05-16, 00:05:04,VALID,1012.228,VALID,0.0,VALID,104.0,VALID,0.0,VALID,24.24,VALID,72.0,VALID,0.234,
2011-05-16, 00:06:04,VALID,1012.223,VALID,0.0,VALID,104.0,VALID,0.0,VALID,24.24,VALID,72.0,VALID,0.289,
2011-05-16, 00:07:04,VALID,1012.218,VALID,0.0,VALID,104.0,VALID,0.0,VALID,24.218,VALID,72.0,VALID,0.246,
2011-05-16, 00:08:04,VALID,1012.197,VALID,0.0,VALID,104.0,VALID,0.0,VALID,24.218,VALID,72.0,VALID,0.23,
2011-05-16, 00:09:04,VALID,1012.19,VALID,0.0,VALID,104.0,VALID,0.0,VALID,24.22,VALID,72.0,VALID,0.336,
2011-05-16, 00:10:04,VALID,1012.16,VALID,0.0,VALID,104.0,VALID,0.0,VALID,24.179,VALID,72.0,VALID,0.23,
2011-05-16, 00:11:04,VALID,1012.159,VALID,0.0,VALID,104.0,VALID,0.0,VALID,24.22,VALID,72.0,VALID,0.038,
2011-05-16, 00:12:04,VALID,1012.149,VALID,0.0,VALID,104.0,VALID,0.0,VALID,24.201,VALID,72.0,VALID,0.196,
2011-05-16, 00:13:04,VALID,1012.114,VALID,0.0,VALID,104.0,VALID,0.0,VALID,24.201,VALID,72.0,VALID,0.0,
2011-05-16, 00:14:04,VALID,1012.123,VALID,0.0,VALID,104.0,VALID,0.0,VALID,24.16,VALID,72.0,VALID,0.0,
2011-05-16, 00:15:04,VALID,1012.106,VALID,0.0,VALID,104.0,VALID,0.0,VALID,24.181,VALID,72.0,VALID,0.0,
2011-05-16, 00:16:04,VALID,1012.085,VALID,0.0,VALID,104.0,VALID,0.0,VALID,24.162,VALID,72.0,VALID,0.0,
2011-05-16, 00:17:04,VALID,1012.056,VALID,0.0,VALID,104.0,VALID,0.0,VALID,24.142,VALID,72.0,VALID,0.0,
2011-05-16, 00:18:04,VALID,1012.051,VALID,0.0,VALID,104.0,VALID,0.106,VALID,24.121,VALID,72.0,VALID,0.0,
2011-05-16, 00:19:04,VALID,1012.009,VALID,0.0,VALID,104.0,VALID,0.0,VALID,24.101,VALID,72.0,VALID,0.0,
2011-05-16, 00:20:04,VALID,1011.996,VALID,0.0,VALID,104.0,VALID,0.0,VALID,24.123,VALID,72.0,VALID,0.0,
2011-05-16, 00:21:04,VALID,1011.993,VALID,0.0,VALID,104.0,VALID,0.0,VALID,24.103,VALID,72.0,VALID,0.0,
2011-05-16, 00:22:04,VALID,1011.956,VALID,0.0,VALID,104.0,VALID,0.0,VALID,24.082,VALID,72.0,VALID,0.014,
2011-05-16, 00:23:04,VALID,1011.963,VALID,0.0,VALID,104.0,VALID,0.0,VALID,24.103,VALID,72.0,VALID,0.077,
2011-05-16, 00:24:04,VALID,1011.917,VALID,0.0,VALID,104.0,VALID,0.0,VALID,24.103,VALID,72.0,VALID,0.002,
2011-05-16, 00:25:04,VALID,1011.899,VALID,0.0,VALID,104.0,VALID,0.0,VALID,24.084,VALID,72.0,VALID,0.0,
2011-05-16, 00:26:04,VALID,1011.917,VALID,0.0,VALID,104.0,VALID,0.0,VALID,24.103,VALID,72.0,VALID,0.0,
2011-05-16, 00:27:04,VALID,1011.852,VALID,0.0,VALID,104.0,VALID,0.0,VALID,24.084,VALID,72.0,VALID,0.0,
2011-05-16, 00:28:04,VALID,1011.848,VALID,0.0,VALID,104.0,VALID,0.0,VALID,24.064,VALID,72.0,VALID,0.393,
2011-05-16, 00:29:04,VALID,1011.808,VALID,0.0,VALID,104.0,VALID,0.0,VALID,24.084,VALID,72.0,VALID,0.0,
2011-05-16, 00:30:04,VALID,1011.802,VALID,0.0,VALID,104.0,VALID,0.0,VALID,24.043,VALID,72.0,VALID,0.0,
2011-05-16, 00:31:04,VALID,1011.765,VALID,0.0,VALID,104.0,VALID,0.0,VALID,24.064,VALID,72.0,VALID,0.0,
2011-05-16, 00:32:04,VALID,1011.775,VALID,0.0,VALID,104.0,VALID,0.0,VALID,24.023,VALID,72.0,VALID,0.0,
2011-05-16, 00:33:04,VALID,1011.769,VALID,0.0,VALID,104.0,VALID,0.0,VALID,24.025,VALID,72.0,VALID,0.04,
2011-05-16, 00:34:04,VALID,1011.777,VALID,0.0,VALID,104.0,VALID,0.0,VALID,24.006,VALID,72.0,VALID,0.0,
2011-05-16, 00:35:04,VALID,1011.793,VALID,0.0,VALID,104.0,VALID,0.0,VALID,24.006,VALID,72.0,VALID,0.0,
2011-05-16, 00:36:04,VALID,1011.774,VALID,0.0,VALID,104.0,VALID,0.0,VALID,24.006,VALID,72.0,VALID,0.0,
2011-05-16, 00:37:04,VALID,1011.785,VALID,0.0,VALID,104.0,VALID,0.0,VALID,23.986,VALID,72.0,VALID,0.0,
2011-05-16, 00:38:04,VALID,1011.774,VALID,0.0,VALID,104.0,VALID,0.0,VALID,23.965,VALID,72.0,VALID,0.0,
2011-05-16, 00:39:04,VALID,1011.752,VALID,0.0,VALID,104.0,VALID,0.0,VALID,23.967,VALID,72.0,VALID,0.0,
2011-05-16, 00:40:04,VALID,1011.743,VALID,0.0,VALID,104.0,VALID,0.0,VALID,23.967,VALID,72.0,VALID,0.317,
2011-05-16, 00:41:04,VALID,1011.754,VALID,0.0,VALID,104.0,VALID,0.0,VALID,23.967,VALID,72.0,VALID,0.0,
2011-05-16, 00:42:04,VALID,1011.717,VALID,0.0,VALID,104.0,VALID,0.0,VALID,23.967,VALID,72.0,VALID,0.3,
2011-05-16, 00:43:04,VALID,1011.707,VALID,0.0,VALID,104.0,VALID,0.0,VALID,23.986,VALID,72.0,VALID,0.001,
2011-05-16, 00:44:04,VALID,1011.665,VALID,0.0,VALID,104.0,VALID,0.0,VALID,23.986,VALID,62.0,VALID,0.354,
2011-05-16, 00:45:04,VALID,1011.647,VALID,0.0,VALID,104.0,VALID,0.0,VALID,23.965,VALID,62.0,VALID,0.316,
2011-05-16, 00:46:04,VALID,1011.62,VALID,0.0,VALID,104.0,VALID,0.0,VALID,23.986,VALID,62.0,VALID,0.109,
2011-05-16, 00:47:04,VALID,1011.557,VALID,0.0,VALID,104.0,VALID,0.0,VALID,23.967,VALID,62.0,VALID,0.347,
2011-05-16, 00:48:04,VALID,1011.531,VALID,0.0,VALID,104.0,VALID,0.0,VALID,23.986,VALID,25.0,VALID,0.497,
2011-05-16, 00:49:04,VALID,1011.5,VALID,0.0,VALID,104.0,VALID,0.0,VALID,23.967,VALID,25.0,VALID,0.138,
2011-05-16, 00:50:04,VALID,1011.471,VALID,0.0,VALID,104.0,VALID,0.0,VALID,23.946,VALID,25.0,VALID,0.0,
2011-05-16, 00:51:04,VALID,1011.457,VALID,0.0,VALID,104.0,VALID,0.0,VALID,23.947,VALID,25.0,VALID,0.0,
2011-05-16, 00:52:04,VALID,1011.399,VALID,0.0,VALID,104.0,VALID,0.0,VALID,23.907,VALID,19.0,VALID,0.094,
2011-05-16, 00:53:04,VALID,1011.376,VALID,0.0,VALID,104.0,VALID,0.0,VALID,23.928,VALID,1.0,VALID,0.45,
2011-05-16, 00:54:04,VALID,1011.337,VALID,0.0,VALID,104.0,VALID,0.0,VALID,23.947,VALID,356.0,VALID,0.532,
2011-05-16, 00:55:04,VALID,1011.328,VALID,0.0,VALID,104.0,VALID,0.0,VALID,23.928,VALID,356.0,VALID,0.476,
2011-05-16, 00:56:04,VALID,1011.304,VALID,0.0,VALID,104.0,VALID,0.0,VALID,23.928,VALID,356.0,VALID,0.153,
2011-05-16, 00:57:04,VALID,1011.299,VALID,0.0,VALID,104.0,VALID,0.0,VALID,23.908,VALID,356.0,VALID,0.0,
2011-05-16, 00:58:04,VALID,1011.314,VALID,0.0,VALID,104.0,VALID,0.0,VALID,23.887,VALID,356.0,VALID,0.0,
2011-05-16, 00:59:04,VALID,1011.292,VALID,0.0,VALID,104.0,VALID,0.0,VALID,23.908,VALID,356.0,VALID,0.0,
2011-05-16, 01:00:04,VALID,1011.289,VALID,0.0,VALID,104.0,VALID,0.106,VALID,23.887,VALID,356.0,VALID,0.0,
2011-05-16, 01:01:04,VALID,1011.317,VALID,0.0,VALID,104.0,VALID,0.0,VALID,23.908,VALID,356.0,VALID,0.0,
2011-05-16, 01:02:04,VALID,1011.284,VALID,0.0,VALID,104.0,VALID,0.0,VALID,23.889,VALID,356.0,VALID,0.0,
2011-05-16, 01:03:04,VALID,1011.31,VALID,0.0,VALID,104.0,VALID,0.0,VALID,23.868,VALID,356.0,VALID,0.0,
2011-05-16, 01:04:04,VALID,1011.276,VALID,0.0,VALID,104.0,VALID,0.0,VALID,23.868,VALID,356.0,VALID,0.0,
2011-05-16, 01:05:04,VALID,1011.25,VALID,0.0,VALID,104.0,VALID,0.0,VALID,23.869,VALID,356.0,VALID,0.0,
2011-05-16, 01:06:04,VALID,1011.226,VALID,0.0,VALID,104.0,VALID,0.0,VALID,23.869,VALID,356.0,VALID,0.0,
2011-05-16, 01:07:04,VALID,1011.228,VALID,0.0,VALID,104.0,VALID,0.0,VALID,23.889,VALID,356.0,VALID,0.0,
2011-05-16, 01:08:04,VALID,1011.195,VALID,0.0,VALID,104.0,VALID,0.0,VALID,23.889,VALID,356.0,VALID,0.0,
2011-05-16, 01:09:04,VALID,1011.19,VALID,0.0,VALID,104.0,VALID,0.0,VALID,23.869,VALID,357.0,VALID,0.006,
2011-05-16, 01:10:05,VALID,1011.162,VALID,0.0,VALID,104.0,VALID,0.0,VALID,23.848,VALID,357.0,VALID,0.0,
2011-05-16, 01:11:05,VALID,1011.151,VALID,0.0,VALID,104.0,VALID,0.0,VALID,23.869,VALID,357.0,VALID,0.005,
2011-05-16, 01:12:05,VALID,1011.153,VALID,0.0,VALID,104.0,VALID,0.0,VALID,23.869,VALID,357.0,VALID,0.229,
2011-05-16, 01:13:05,VALID,1011.134,VALID,0.0,VALID,104.0,VALID,0.0,VALID,23.869,VALID,357.0,VALID,0.109,
2011-05-16, 01:14:05,VALID,1011.124,VALID,0.0,VALID,104.0,VALID,0.0,VALID,23.85,VALID,357.0,VALID,0.323,
2011-05-16, 01:15:05,VALID,1011.089,VALID,0.0,VALID,104.0,VALID,0.0,VALID,23.869,VALID,357.0,VALID,0.0,
2011-05-16, 01:16:05,VALID,1011.055,VALID,0.0,VALID,104.0,VALID,0.0,VALID,23.869,VALID,357.0,VALID,0.003,
2011-05-16, 01:17:05,VALID,1011.018,VALID,0.0,VALID,104.0,VALID,0.0,VALID,23.869,VALID,358.0,VALID,0.412,
2011-05-16, 01:18:05,VALID,1011.019,VALID,0.0,VALID,104.0,VALID,0.0,VALID,23.85,VALID,351.0,VALID,0.29,
2011-05-16, 01:19:05,VALID,1010.983,VALID,0.0,VALID,104.0,VALID,0.0,VALID,23.869,VALID,351.0,VALID,0.266,
2011-05-16, 01:20:05,VALID,1010.961,VALID,0.0,VALID,104.0,VALID,0.0,VALID,23.85,VALID,351.0,VALID,0.02,
2011-05-16, 01:21:05,VALID,1010.933,VALID,0.0,VALID,104.0,VALID,0.0,VALID,23.869,VALID,351.0,VALID,0.188,
2011-05-16, 01:22:05,VALID,1010.92,VALID,0.0,VALID,104.0,VALID,0.0,VALID,23.869,VALID,351.0,VALID,0.0,
2011-05-16, 01:23:05,VALID,1010.913,VALID,0.0,VALID,104.0,VALID,0.0,VALID,23.891,VALID,351.0,VALID,0.0,
2011-05-16, 01:24:05,VALID,1010.888,VALID,0.0,VALID,104.0,VALID,0.0,VALID,23.869,VALID,351.0,VALID,0.134,
2011-05-16, 01:25:05,VALID,1010.905,VALID,0.0,VALID,104.0,VALID,0.0,VALID,23.869,VALID,351.0,VALID,0.48,
2011-05-16, 01:26:05,VALID,1010.87,VALID,0.0,VALID,104.0,VALID,0.0,VALID,23.848,VALID,349.0,VALID,0.117,
2011-05-16, 01:27:05,VALID,1010.857,VALID,0.0,VALID,104.0,VALID,0.0,VALID,23.869,VALID,320.0,VALID,0.0,
2011-05-16, 01:28:05,VALID,1010.858,VALID,0.0,VALID,104.0,VALID,0.0,VALID,23.848,VALID,320.0,VALID,0.041,
2011-05-16, 01:29:05,VALID,1010.852,VALID,0.0,VALID,104.0,VALID,0.0,VALID,23.889,VALID,317.0,VALID,0.134,
2011-05-16, 01:30:05,VALID,1010.839,VALID,0.0,VALID,104.0,VALID,0.0,VALID,23.908,VALID,308.0,VALID,0.02,
2011-05-16, 01:31:05,VALID,1010.821,VALID,0.0,VALID,104.0,VALID,0.0,VALID,23.908,VALID,308.0,VALID,0.042,
2011-05-16, 01:32:05,VALID,1010.812,VALID,0.0,VALID,104.0,VALID,0.0,VALID,23.908,VALID,315.0,VALID,0.299,
2011-05-16, 01:33:05,VALID,1010.8,VALID,0.0,VALID,104.0,VALID,0.0,VALID,23.887,VALID,315.0,VALID,0.0,
2011-05-16, 01:34:05,VALID,1010.752,VALID,0.0,VALID,104.0,VALID,0.0,VALID,23.907,VALID,315.0,VALID,0.161,
2011-05-16, 01:35:05,VALID,1010.726,VALID,0.0,VALID,104.0,VALID,0.0,VALID,23.928,VALID,315.0,VALID,0.0,
2011-05-16, 01:36:05,VALID,1010.73,VALID,0.0,VALID,104.0,VALID,0.0,VALID,23.928,VALID,315.0,VALID,0.0,
2011-05-16, 01:37:05,VALID,1010.724,VALID,0.0,VALID,104.0,VALID,0.0,VALID,23.928,VALID,315.0,VALID,0.0,
2011-05-16, 01:38:05,VALID,1010.708,VALID,0.0,VALID,104.0,VALID,0.0,VALID,23.928,VALID,315.0,VALID,0.0,
2011-05-16, 01:39:05,VALID,1010.703,VALID,0.0,VALID,104.0,VALID,0.0,VALID,23.947,VALID,315.0,VALID,0.0,
2011-05-16, 01:40:05,VALID,1010.689,VALID,0.0,VALID,104.0,VALID,0.0,VALID,23.947,VALID,315.0,VALID,0.047,
2011-05-16, 01:41:05,VALID,1010.718,VALID,0.0,VALID,104.0,VALID,0.0,VALID,23.947,VALID,315.0,VALID,0.0,
2011-05-16, 01:42:05,VALID,1010.702,VALID,0.0,VALID,104.0,VALID,0.0,VALID,23.967,VALID,315.0,VALID,0.0,
2011-05-16, 01:43:05,VALID,1010.688,VALID,0.0,VALID,104.0,VALID,0.0,VALID,23.967,VALID,315.0,VALID,0.0,
2011-05-16, 01:44:05,VALID,1010.708,VALID,0.0,VALID,104.0,VALID,0.0,VALID,23.967,VALID,315.0,VALID,0.0,
2011-05-16, 01:45:05,VALID,1010.708,VALID,0.0,VALID,104.0,VALID,0.0,VALID,23.986,VALID,315.0,VALID,0.0,
2011-05-16, 01:46:05,VALID,1010.67,VALID,0.0,VALID,104.0,VALID,0.0,VALID,24.025,VALID,315.0,VALID,0.139,
2011-05-16, 01:47:05,VALID,1010.683,VALID,0.0,VALID,104.0,VALID,0.0,VALID,23.984,VALID,315.0,VALID,0.0,
2011-05-16, 01:48:05,VALID,1010.667,VALID,0.0,VALID,104.0,VALID,0.0,VALID,24.025,VALID,315.0,VALID,0.0,
2011-05-16, 01:49:05,VALID,1010.66,VALID,0.0,VALID,104.0,VALID,0.0,VALID,24.004,VALID,315.0,VALID,0.0,
2011-05-16, 01:50:05,VALID,1010.658,VALID,0.0,VALID,104.0,VALID,0.0,VALID,24.004,VALID,315.0,VALID,0.0,
2011-05-16, 01:51:05,VALID,1010.671,VALID,0.0,VALID,104.0,VALID,0.0,VALID,24.045,VALID,315.0,VALID,0.0,
2011-05-16, 01:52:05,VALID,1010.662,VALID,0.0,VALID,104.0,VALID,0.0,VALID,24.064,VALID,315.0,VALID,0.0,
2011-05-16, 01:53:05,VALID,1010.653,VALID,0.0,VALID,104.0,VALID,0.0,VALID,24.064,VALID,315.0,VALID,0.0,
2011-05-16, 01:54:05,VALID,1010.615,VALID,0.0,VALID,103.931,VALID,0.0,VALID,24.064,VALID,315.0,VALID,0.0,
2011-05-16, 01:55:05,VALID,1010.585,VALID,0.0,VALID,103.87,VALID,0.106,VALID,24.064,VALID,315.0,VALID,0.0,
2011-05-16, 01:56:05,VALID,1010.583,VALID,0.0,VALID,103.825,VALID,0.0,VALID,24.064,VALID,315.0,VALID,0.0,
2011-05-16, 01:57:05,VALID,1010.542,VALID,0.0,VALID,103.741,VALID,0.0,VALID,24.064,VALID,315.0,VALID,0.0,
2011-05-16, 01:58:05,VALID,1010.515,VALID,0.0,VALID,103.68,VALID,0.106,VALID,24.084,VALID,315.0,VALID,0.0,
2011-05-16, 01:59:05,VALID,1010.479,VALID,0.0,VALID,103.68,VALID,0.0,VALID,24.103,VALID,315.0,VALID,0.0,
2011-05-16, 02:00:05,VALID,1010.474,VALID,0.0,VALID,103.703,VALID,0.0,VALID,24.082,VALID,315.0,VALID,0.0,
2011-05-16, 02:01:05,VALID,1010.421,VALID,0.0,VALID,103.718,VALID,0.0,VALID,24.062,VALID,315.0,VALID,0.0,
2011-05-16, 02:02:05,VALID,1010.392,VALID,0.0,VALID,103.718,VALID,0.106,VALID,24.062,VALID,315.0,VALID,0.0,
2011-05-16, 02:03:05,VALID,1010.391,VALID,0.0,VALID,103.748,VALID,0.106,VALID,24.084,VALID,315.0,VALID,0.02,
2011-05-16, 02:04:05,VALID,1010.356,VALID,0.0,VALID,103.733,VALID,0.0,VALID,24.084,VALID,315.0,VALID,0.0,
2011-05-16, 02:05:05,VALID,1010.353,VALID,0.0,VALID,103.71,VALID,0.0,VALID,24.064,VALID,315.0,VALID,0.049,
2011-05-16, 02:06:05,VALID,1010.351,VALID,0.0,VALID,103.71,VALID,0.0,VALID,24.064,VALID,323.0,VALID,0.439,
2011-05-16, 02:07:05,VALID,1010.333,VALID,0.0,VALID,103.733,VALID,0.0,VALID,24.045,VALID,323.0,VALID,0.098,
2011-05-16, 02:08:05,VALID,1010.31,VALID,0.0,VALID,103.733,VALID,0.0,VALID,24.045,VALID,323.0,VALID,0.054,
2011-05-16, 02:09:05,VALID,1010.29,VALID,0.0,VALID,103.718,VALID,0.106,VALID,24.045,VALID,323.0,VALID,0.0,
2011-05-16, 02:10:05,VALID,1010.309,VALID,0.0,VALID,103.748,VALID,0.0,VALID,24.043,VALID,323.0,VALID,0.0,
2011-05-16, 02:11:05,VALID,1010.299,VALID,0.0,VALID,103.771,VALID,0.106,VALID,24.043,VALID,323.0,VALID,0.146,
2011-05-16, 02:12:05,VALID,1010.317,VALID,0.0,VALID,103.787,VALID,0.0,VALID,24.043,VALID,323.0,VALID,0.0,
2011-05-16, 02:13:05,VALID,1010.31,VALID,0.0,VALID,103.748,VALID,0.0,VALID,24.084,VALID,323.0,VALID,0.0,
2011-05-16, 02:14:05,VALID,1010.313,VALID,0.0,VALID,103.695,VALID,0.0,VALID,24.084,VALID,323.0,VALID,0.0,
2011-05-16, 02:15:05,VALID,1010.33,VALID,0.0,VALID,103.649,VALID,0.0,VALID,24.062,VALID,323.0,VALID,0.0,
2011-05-16, 02:16:05,VALID,1010.308,VALID,0.0,VALID,103.657,VALID,0.0,VALID,24.062,VALID,323.0,VALID,0.0,
2011-05-16, 02:17:05,VALID,1010.283,VALID,0.0,VALID,103.657,VALID,0.106,VALID,24.043,VALID,323.0,VALID,0.0,
2011-05-16, 02:18:05,VALID,1010.272,VALID,0.0,VALID,103.642,VALID,0.0,VALID,24.064,VALID,323.0,VALID,0.0,
2011-05-16, 02:19:05,VALID,1010.267,VALID,0.0,VALID,103.642,VALID,0.0,VALID,24.045,VALID,323.0,VALID,0.345,
2011-05-16, 02:20:05,VALID,1010.24,VALID,0.0,VALID,103.664,VALID,0.0,VALID,24.064,VALID,323.0,VALID,0.006,
2011-05-16, 02:21:05,VALID,1010.228,VALID,0.0,VALID,103.642,VALID,0.0,VALID,24.023,VALID,323.0,VALID,0.0,
2011-05-16, 02:22:05,VALID,1010.207,VALID,0.0,VALID,103.664,VALID,0.0,VALID,24.064,VALID,323.0,VALID,0.0,
2011-05-16, 02:23:05,VALID,1010.226,VALID,0.0,VALID,103.695,VALID,0.106,VALID,24.045,VALID,323.0,VALID,0.0,
2011-05-16, 02:24:05,VALID,1010.236,VALID,0.0,VALID,103.695,VALID,0.0,VALID,24.025,VALID,323.0,VALID,0.0,
2011-05-16, 02:25:05,VALID,1010.246,VALID,0.0,VALID,103.726,VALID,0.0,VALID,24.004,VALID,323.0,VALID,0.0,
2011-05-16, 02:26:05,VALID,1010.227,VALID,0.0,VALID,103.741,VALID,0.0,VALID,24.006,VALID,323.0,VALID,0.0,
2011-05-16, 02:27:05,VALID,1010.236,VALID,0.0,VALID,103.726,VALID,0.0,VALID,23.965,VALID,323.0,VALID,0.0,
2011-05-16, 02:28:05,VALID,1010.243,VALID,0.0,VALID,103.779,VALID,0.0,VALID,23.986,VALID,323.0,VALID,0.0,
2011-05-16, 02:29:05,VALID,1010.233,VALID,0.0,VALID,103.809,VALID,0.0,VALID,23.946,VALID,323.0,VALID,0.0,
2011-05-16, 02:30:05,VALID,1010.273,VALID,0.0,VALID,103.863,VALID,0.0,VALID,23.947,VALID,323.0,VALID,0.0,
2011-05-16, 02:31:05,VALID,1010.258,VALID,0.0,VALID,103.901,VALID,0.106,VALID,23.947,VALID,323.0,VALID,0.0,
2011-05-16, 02:32:05,VALID,1010.25,VALID,0.0,VALID,103.924,VALID,0.0,VALID,23.907,VALID,323.0,VALID,0.0,
2011-05-16, 02:33:05,VALID,1010.254,VALID,0.0,VALID,103.992,VALID,0.0,VALID,23.907,VALID,323.0,VALID,0.0,
2011-05-16, 02:34:05,VALID,1010.245,VALID,0.0,VALID,104.0,VALID,0.0,VALID,23.907,VALID,323.0,VALID,0.0,
2011-05-16, 02:35:05,VALID,1010.247,VALID,0.0,VALID,104.0,VALID,0.0,VALID,23.908,VALID,323.0,VALID,0.0,
2011-05-16, 02:36:05,VALID,1010.229,VALID,0.0,VALID,104.0,VALID,0.0,VALID,23.889,VALID,323.0,VALID,0.0,
2011-05-16, 02:37:05,VALID,1010.228,VALID,0.0,VALID,104.0,VALID,0.0,VALID,23.889,VALID,323.0,VALID,0.0,
2011-05-16, 02:38:05,VALID,1010.228,VALID,0.0,VALID,104.0,VALID,0.0,VALID,23.869,VALID,323.0,VALID,0.0,
2011-05-16, 02:39:05,VALID,1010.223,VALID,0.0,VALID,104.0,VALID,0.0,VALID,23.869,VALID,323.0,VALID,0.0,
2011-05-16, 02:40:05,VALID,1010.241,VALID,0.0,VALID,104.0,VALID,0.0,VALID,23.85,VALID,323.0,VALID,0.0,
2011-05-16, 02:41:05,VALID,1010.269,VALID,0.0,VALID,104.0,VALID,0.0,VALID,23.85,VALID,323.0,VALID,0.0,
2011-05-16, 02:42:05,VALID,1010.269,VALID,0.0,VALID,104.0,VALID,0.0,VALID,23.83,VALID,323.0,VALID,0.0,
2011-05-16, 02:43:05,VALID,1010.271,VALID,0.0,VALID,104.0,VALID,0.0,VALID,23.83,VALID,323.0,VALID,0.0,
2011-05-16, 02:44:05,VALID,1010.288,VALID,0.0,VALID,104.0,VALID,0.0,VALID,23.811,VALID,323.0,VALID,0.0,
2011-05-16, 02:45:05,VALID,1010.275,VALID,0.0,VALID,104.0,VALID,0.0,VALID,23.83,VALID,323.0,VALID,0.0,
2011-05-16, 02:46:05,VALID,1010.298,VALID,0.0,VALID,104.0,VALID,0.0,VALID,23.832,VALID,323.0,VALID,0.0,
2011-05-16, 02:47:05,VALID,1010.298,VALID,0.0,VALID,104.0,VALID,0.0,VALID,23.811,VALID,323.0,VALID,0.0,
2011-05-16, 02:48:05,VALID,1010.292,VALID,0.0,VALID,104.0,VALID,0.0,VALID,23.83,VALID,323.0,VALID,0.0,
2011-05-16, 02:49:05,VALID,1010.3,VALID,0.0,VALID,104.0,VALID,0.0,VALID,23.83,VALID,323.0,VALID,0.0,
2011-05-16, 02:50:05,VALID,1010.265,VALID,0.0,VALID,104.0,VALID,0.0,VALID,23.85,VALID,323.0,VALID,0.0,
2011-05-16, 02:51:05,VALID,1010.256,VALID,0.0,VALID,104.0,VALID,0.0,VALID,23.85,VALID,323.0,VALID,0.0,
2011-05-16, 02:52:05,VALID,1010.246,VALID,0.0,VALID,104.0,VALID,0.0,VALID,23.85,VALID,323.0,VALID,0.0,
2011-05-16, 02:53:05,VALID,1010.234,VALID,0.0,VALID,104.0,VALID,0.0,VALID,23.889,VALID,322.0,VALID,0.221,
2011-05-16, 02:54:05,VALID,1010.207,VALID,0.0,VALID,104.0,VALID,0.0,VALID,23.908,VALID,320.0,VALID,0.0,
2011-05-16, 02:55:05,VALID,1010.189,VALID,0.0,VALID,104.0,VALID,0.0,VALID,23.908,VALID,320.0,VALID,0.0,
2011-05-16, 02:56:05,VALID,1010.167,VALID,0.0,VALID,104.0,VALID,0.0,VALID,23.928,VALID,320.0,VALID,0.0,
2011-05-16, 02:57:05,VALID,1010.154,VALID,0.0,VALID,104.0,VALID,0.0,VALID,23.928,VALID,320.0,VALID,0.0,
2011-05-16, 02:58:05,VALID,1010.124,VALID,0.0,VALID,104.0,VALID,0.0,VALID,23.926,VALID,320.0,VALID,0.0,
2011-05-16, 02:59:05,VALID,1010.09,VALID,0.0,VALID,104.0,VALID,0.0,VALID,23.947,VALID,320.0,VALID,0.0,
2011-05-16, 03:00:05,VALID,1010.105,VALID,0.0,VALID,104.0,VALID,0.0,VALID,23.947,VALID,320.0,VALID,0.0,
2011-05-16, 03:01:05,VALID,1010.094,VALID,0.0,VALID,104.0,VALID,0.0,VALID,23.947,VALID,320.0,VALID,0.0,
2011-05-16, 03:02:05,VALID,1010.071,VALID,0.0,VALID,104.0,VALID,0.0,VALID,23.947,VALID,320.0,VALID,0.0,
2011-05-16, 03:03:05,VALID,1010.08,VALID,0.0,VALID,104.0,VALID,0.0,VALID,23.928,VALID,320.0,VALID,0.0,
2011-05-16, 03:04:05,VALID,1010.074,VALID,0.0,VALID,104.0,VALID,0.0,VALID,23.928,VALID,320.0,VALID,0.0,
2011-05-16, 03:05:05,VALID,1010.064,VALID,0.0,VALID,104.0,VALID,0.0,VALID,23.928,VALID,320.0,VALID,0.0,
2011-05-16, 03:06:05,VALID,1010.061,VALID,0.0,VALID,104.0,VALID,0.0,VALID,23.928,VALID,320.0,VALID,0.0,
2011-05-16, 03:07:05,VALID,1010.036,VALID,0.0,VALID,103.985,VALID,0.0,VALID,23.908,VALID,320.0,VALID,0.102,
2011-05-16, 03:08:05,VALID,1010.021,VALID,0.0,VALID,103.985,VALID,0.0,VALID,23.908,VALID,320.0,VALID,0.0,
2011-05-16, 03:09:05,VALID,1010.024,VALID,0.0,VALID,103.954,VALID,0.0,VALID,23.889,VALID,320.0,VALID,0.0,
2011-05-16, 03:10:05,VALID,1009.994,VALID,0.0,VALID,103.947,VALID,0.0,VALID,23.848,VALID,320.0,VALID,0.0,
2011-05-16, 03:11:05,VALID,1009.993,VALID,0.0,VALID,103.954,VALID,0.0,VALID,23.85,VALID,320.0,VALID,0.167,
2011-05-16, 03:12:05,VALID,1009.974,VALID,0.0,VALID,103.992,VALID,0.0,VALID,23.809,VALID,320.0,VALID,0.281,
2011-05-16, 03:13:05,VALID,1009.99,VALID,0.0,VALID,104.0,VALID,0.106,VALID,23.77,VALID,320.0,VALID,0.379,
2011-05-16, 03:14:05,VALID,1009.976,VALID,0.0,VALID,104.0,VALID,0.106,VALID,23.751,VALID,320.0,VALID,0.294,
2011-05-16, 03:15:05,VALID,1009.994,VALID,0.0,VALID,104.0,VALID,0.106,VALID,23.712,VALID,320.0,VALID,0.2,
2011-05-16, 03:16:05,VALID,1009.979,VALID,0.0,VALID,104.0,VALID,0.106,VALID,23.694,VALID,320.0,VALID,0.0,
2011-05-16, 03:17:05,VALID,1010.0,VALID,0.0,VALID,104.0,VALID,0.0,VALID,23.655,VALID,320.0,VALID,0.0,
2011-05-16, 03:18:05,VALID,1009.996,VALID,0.0,VALID,104.0,VALID,0.0,VALID,23.634,VALID,320.0,VALID,0.188,
2011-05-16, 03:19:05,VALID,1009.998,VALID,0.0,VALID,104.0,VALID,0.0,VALID,23.614,VALID,320.0,VALID,0.154,
2011-05-16, 03:20:05,VALID,1009.974,VALID,0.0,VALID,104.0,VALID,0.106,VALID,23.636,VALID,320.0,VALID,0.286,
2011-05-16, 03:21:05,VALID,1009.992,VALID,0.0,VALID,104.0,VALID,0.0,VALID,23.614,VALID,320.0,VALID,0.429,
2011-05-16, 03:22:05,VALID,1009.978,VALID,0.0,VALID,104.0,VALID,0.0,VALID,23.636,VALID,320.0,VALID,0.413,
2011-05-16, 03:23:05,VALID,1009.98,VALID,0.0,VALID,104.0,VALID,0.0,VALID,23.634,VALID,320.0,VALID,0.283,
2011-05-16, 03:24:05,VALID,1009.975,VALID,0.0,VALID,104.0,VALID,0.106,VALID,23.634,VALID,320.0,VALID,0.196,
2011-05-16, 03:25:05,VALID,1010.018,VALID,0.0,VALID,104.0,VALID,0.0,VALID,23.655,VALID,320.0,VALID,0.102,
2011-05-16, 03:26:05,VALID,1009.98,VALID,0.0,VALID,104.0,VALID,0.106,VALID,23.634,VALID,320.0,VALID,0.0,
2011-05-16, 03:27:05,VALID,1009.988,VALID,0.0,VALID,104.0,VALID,0.0,VALID,23.655,VALID,320.0,VALID,0.0,
2011-05-16, 03:28:05,VALID,1009.99,VALID,0.0,VALID,104.0,VALID,0.0,VALID,23.675,VALID,320.0,VALID,0.0,
2011-05-16, 03:29:05,VALID,1009.985,VALID,0.0,VALID,104.0,VALID,0.0,VALID,23.655,VALID,320.0,VALID,0.0,
2011-05-16, 03:30:05,VALID,1009.991,VALID,0.0,VALID,104.0,VALID,0.0,VALID,23.675,VALID,320.0,VALID,0.057,
2011-05-16, 03:31:05,VALID,1009.987,VALID,0.0,VALID,104.0,VALID,0.0,VALID,23.655,VALID,320.0,VALID,0.142,
2011-05-16, 03:32:05,VALID,1010.005,VALID,0.0,VALID,104.0,VALID,0.0,VALID,23.655,VALID,320.0,VALID,0.436,
2011-05-16, 03:33:05,VALID,1010.013,VALID,0.0,VALID,104.0,VALID,0.106,VALID,23.655,VALID,72.0,VALID,0.624,
2011-05-16, 03:34:05,VALID,1010.013,VALID,0.0,VALID,104.0,VALID,0.0,VALID,23.634,VALID,82.0,VALID,0.77,
2011-05-16, 03:35:05,VALID,1010.003,VALID,0.0,VALID,104.0,VALID,0.0,VALID,23.655,VALID,82.0,VALID,0.806,
2011-05-16, 03:36:05,VALID,1010.053,VALID,0.0,VALID,104.0,VALID,0.0,VALID,23.675,VALID,82.0,VALID,0.63,
2011-05-16, 03:37:05,VALID,1010.066,VALID,0.0,VALID,104.0,VALID,0.0,VALID,23.675,VALID,82.0,VALID,0.488,
2011-05-16, 03:38:05,VALID,1010.069,VALID,0.0,VALID,104.0,VALID,0.0,VALID,23.675,VALID,82.0,VALID,0.53,
2011-05-16, 03:39:05,VALID,1010.1,VALID,0.0,VALID,104.0,VALID,0.0,VALID,23.675,VALID,82.0,VALID,0.381,
2011-05-16, 03:40:05,VALID,1010.092,VALID,0.0,VALID,104.0,VALID,0.0,VALID,23.653,VALID,82.0,VALID,0.379,
2011-05-16, 03:41:05,VALID,1010.117,VALID,0.0,VALID,104.0,VALID,0.106,VALID,23.675,VALID,82.0,VALID,0.498,
2011-05-16, 03:42:05,VALID,1010.114,VALID,0.0,VALID,104.0,VALID,0.106,VALID,23.694,VALID,82.0,VALID,0.563,
2011-05-16, 03:43:05,VALID,1010.117,VALID,0.0,VALID,104.0,VALID,0.0,VALID,23.653,VALID,65.0,VALID,0.482,
2011-05-16, 03:44:05,VALID,1010.102,VALID,0.0,VALID,104.0,VALID,0.0,VALID,23.675,VALID,65.0,VALID,0.248,